Theta_e
340 343 352 350 348 346 345 344 343 341 339 339 339 338 337 336 336 335 336 337 338 340 342 342 342 344 344 344 345 346 346 345 345 345 344 343 342 338 338 340 341 339 339
340 345 350 348 345 344 342 340 338 336 335 335 335 335 335 335 336 336 335 333 334 336 337 337 337 338 339 339 341 342 342 341 339 338 337 336 338 341 342 339 339 336 341
341 343 343 345 343 340 338 336 334 333 333 334 335 335 335 336 335 335 335 335 335 335 334 334 334 334 334 334 334 335 335 334 333 330 327 320 324 335 344 341 337 340 341
336 337 337 342 339 337 335 334 333 334 334 334 334 335 335 334 334 333 333 333 333 333 332 332 332 332 332 331 331 331 331 330 329 324 316 318 324 337 339 343 337 340 342
331 333 336 339 337 335 334 334 333 333 332 333 333 332 333 332 331 330 330 330 330 329 329 329 329 329 329 328 329 329 328 327 326 315 317 325 333 336 343 339 340 341 342
327 330 336 337 335 334 333 333 332 331 331 330 330 329 330 329 327 327 326 326 326 325 325 325 325 325 325 325 325 326 325 325 321 309 316 323 329 342 341 340 339 339 339
324 328 329 335 334 333 333 331 330 328 327 327 327 327 327 325 324 325 325 325 325 325 325 324 324 325 324 324 325 325 325 325 315 309 315 319 325 341 341 340 339 339 340
324 325 327 333 333 332 331 329 327 325 324 325 325 325 324 324 324 324 324 324 324 323 324 323 323 322 321 322 324 323 324 321 310 309 316 317 329 335 337 336 335 335 336
322 322 321 323 328 330 328 326 324 323 323 322 321 321 321 322 322 322 322 322 322 321 320 320 319 317 317 317 318 317 320 319 309 314 317 316 328 328 329 330 332 332 332
318 318 317 318 318 316 317 325 324 322 322 322 321 321 319 317 319 320 319 319 317 316 316 316 316 315 314 314 315 314 313 313 306 312 316 318 326 326 326 325 327 329 332
313 314 315 314 313 313 314 319 320 322 320 316 315 317 311 306 306 307 314 314 313 312 313 313 313 312 309 307 309 310 306 302 308 313 315 326 326 327 327 327 330 330 331
307 309 312 310 309 310 316 312 309 310 304 303 305 305 304 302 305 303 304 308 308 308 308 309 310 307 301 294 294 300 294 300 310 313 316 325 326 327 326 325 326 325 326
306 306 309 310 309 307 309 308 306 304 303 302 302 303 302 301 298 296 294 293 293 299 293 295 294 294 293 294 294 293 295 299 306 311 316 323 324 325 325 323 323 323 323
305 306 306 306 306 305 306 305 304 304 303 301 300 301 299 298 296 294 292 292 291 292 292 292 292 293 293 294 293 293 293 300 306 309 311 321 321 322 324 322 325 326 326
305 306 306 306 305 305 305 304 303 304 303 301 300 300 299 297 295 293 292 292 291 292 292 292 292 293 293 294 294 293 293 294 302 308 308 318 319 319 321 321 321 322 323
305 306 306 306 306 306 305 305 304 304 303 301 300 298 299 297 295 294 293 293 292 292 293 293 292 293 293 293 294 294 293 293 299 306 307 308 317 316 316 318 318 319 319
305 306 306 306 306 305 305 305 305 305 306 302 301 300 298 298 296 294 293 293 292 293 294 294 294 294 294 295 293 294 294 293 295 304 307 307 307 312 313 313 313 313 314
306 305 306 310 306 304 304 305 306 306 305 304 302 301 300 298 297 295 295 294 293 294 294 294 293 293 294 293 293 294 294 294 295 302 306 306 305 305 307 311 311 310 310
306 306 305 306 305 304 304 304 304 305 304 304 303 302 302 300 298 297 296 296 295 294 294 294 293 292 293 293 295 294 294 295 294 304 303 305 304 304 301 305 310 309 309
306 306 305 305 305 304 304 303 302 302 302 302 303 303 304 302 301 297 297 297 297 296 295 294 293 293 292 292 295 295 293 295 295 300 302 304 303 303 301 300 298 298 306
305 305 305 304 304 302 302 301 300 300 300 301 302 304 305 303 302 298 298 298 297 296 294 295 293 292 292 292 292 293 292 293 292 292 293 295 301 302 301 299 297 296 296
305 305 304 304 303 302 302 302 302 300 300 301 302 303 304 304 304 301 299 298 298 297 297 295 294 293 292 292 291 288 288 290 291 292 292 296 293 294 296 296 295 295 295
303 304 304 304 303 303 303 303 302 302 301 301 301 302 303 303 304 302 300 299 298 297 296 295 294 293 291 292 291 290 287 286 287 291 291 291 292 293 293 294 295 295 294
302 302 303 303 303 303 303 302 301 300 299 300 301 301 302 303 302 303 301 300 299 298 296 296 297 293 292 291 292 294 290 290 287 286 291 291 292 295 293 293 293 294 293
300 301 302 302 303 303 302 302 301 299 299 299 299 299 299 300 301 302 301 299 298 298 296 296 295 294 293 292 291 291 290 289 288 286 284 287 293 292 293 293 292 292 292
300 300 301 302 302 302 302 301 300 299 299 298 297 297 298 299 298 299 300 298 296 295 294 294 294 293 292 292 291 290 290 289 288 287 286 288 288 290 291 291 291 291 291
Wind_Speed
4 5 13 13 11 10 10 10 10 10 9 9 9 10 10 11 11 11 11 12 12 12 13 13 13 13 12 11 12 11 10 10 10 10 9 8 6 4 2 2 2 1 3
7 6 15 13 11 11 11 10 9 9 9 9 9 9 10 10 10 11 11 11 11 12 12 12 11 11 11 10 10 11 12 12 12 11 10 8 7 6 5 1 1 2 1
8 7 11 12 11 11 11 9 9 9 8 8 9 9 9 10 10 11 11 11 11 11 11 11 11 11 11 11 11 11 12 12 13 13 12 5 6 9 8 3 2 3 4
9 8 7 13 12 11 10 9 9 9 9 9 9 9 10 10 10 10 10 10 10 10 10 10 10 11 11 11 10 11 11 12 13 13 6 5 6 11 9 5 2 3 4
7 7 8 13 12 11 10 9 9 9 9 9 9 9 9 10 10 10 10 10 10 10 10 10 10 10 10 11 10 10 10 10 10 8 6 6 5 6 4 3 1 3 4
7 7 10 13 12 10 9 9 8 8 8 8 9 9 9 9 9 9 10 9 9 10 10 10 9 10 10 10 10 10 11 10 8 5 5 7 6 7 7 4 4 5 5
6 7 7 13 12 10 9 8 8 8 8 8 9 9 9 9 10 10 10 10 10 10 10 11 10 11 10 11 10 10 11 10 5 4 5 6 7 10 9 9 8 9 9
7 7 6 11 12 11 9 8 7 7 7 8 8 9 8 9 10 10 10 10 10 9 10 11 10 11 12 11 11 12 11 10 5 4 4 5 10 8 8 8 8 8 8
6 7 6 6 8 10 9 7 7 8 8 7 6 6 7 7 7 9 10 9 10 11 11 10 11 11 12 12 12 11 10 11 5 4 4 4 8 8 7 6 7 7 7
6 6 7 6 6 6 5 8 8 7 7 7 6 7 8 8 8 8 9 9 10 10 10 10 11 11 12 12 13 12 10 9 5 5 4 4 8 8 7 5 5 7 6
4 5 6 6 5 6 5 4 7 7 8 7 7 8 7 4 5 6 9 10 10 10 11 11 12 12 12 12 12 12 10 3 3 3 3 9 9 6 5 5 5 6 6
6 4 5 6 6 5 4 5 4 4 4 4 4 4 3 4 4 5 7 10 10 11 11 11 12 12 9 4 4 8 3 5 3 3 3 10 10 8 4 7 8 8 6
6 4 6 6 5 5 4 3 2 2 2 2 3 3 3 3 3 4 3 4 4 8 4 6 6 4 6 5 5 4 5 4 2 3 5 9 10 9 8 7 5 7 6
7 7 6 6 6 4 3 3 3 3 2 1 1 3 3 2 3 3 3 3 3 3 5 5 3 5 6 5 4 5 4 3 2 2 4 8 9 9 9 7 8 6 7
7 7 7 6 6 5 5 3 3 3 2 2 2 2 2 3 3 2 3 3 3 3 3 4 4 4 5 6 5 4 5 4 3 1 1 6 6 7 7 6 8 9 11
7 7 7 6 6 6 4 4 3 3 3 2 1 1 3 3 2 2 2 3 3 3 3 3 3 4 4 4 5 5 5 4 3 2 1 2 5 6 6 7 7 7 8
6 7 8 7 6 6 5 4 3 3 3 2 2 2 2 2 2 2 2 3 2 2 4 4 4 3 4 4 5 5 4 4 3 2 2 1 2 5 5 5 6 7 8
6 8 7 6 7 6 5 4 3 3 2 2 1 1 1 2 2 2 2 2 2 3 3 3 3 4 4 4 4 5 4 4 3 3 2 1 0 1 4 5 5 6 7
8 8 8 7 7 7 5 3 3 3 2 1 1 2 2 2 2 1 0 1 3 3 3 3 2 2 3 5 6 4 4 4 2 2 1 1 1 1 1 5 7 7 8
7 7 7 6 7 6 4 3 2 2 0 1 2 3 3 3 3 2 0 1 2 2 3 3 2 2 1 3 5 4 4 4 2 2 3 2 1 2 2 3 3 4 10
6 7 8 8 7 5 2 2 1 2 1 2 2 4 4 3 2 3 1 0 2 2 2 2 2 3 3 4 3 4 3 4 5 4 4 4 4 4 4 3 2 2 4
8 8 7 7 7 4 3 2 2 2 1 1 1 2 2 3 3 3 2 1 2 2 3 2 3 2 1 3 1 1 4 5 3 4 4 4 5 4 5 4 5 5 4
8 9 9 8 7 5 5 3 2 2 1 1 1 1 1 2 2 3 2 2 2 2 1 1 1 2 1 2 3 2 2 2 4 2 2 1 3 3 4 5 5 5 5
7 6 6 7 7 6 7 4 4 3 2 2 0 1 2 3 1 2 3 3 3 1 1 0 1 1 2 1 2 1 1 3 1 5 3 3 2 6 4 4 4 5 5
5 5 5 7 6 6 6 4 3 3 1 0 0 1 2 2 3 2 3 3 2 1 1 1 1 1 2 2 1 1 2 1 0 3 5 4 5 3 4 4 4 4 4
4 5 6 7 5 5 5 5 4 3 3 1 1 1 0 1 2 4 4 3 3 3 2 1 1 2 1 1 1 1 2 2 2 2 3 4 6 5 3 4 4 4 2
Wind_Direction
163 154 134 116 112 108 97 89 84 76 69 62 60 52 47 42 36 33 31 30 29 31 30 27 17 16 15 14 15 21 19 20 19 16 4 351 345 340 353 62 71 62 86
133 136 116 117 118 107 98 92 85 77 71 68 61 56 54 51 47 42 39 39 37 36 32 26 21 18 13 10 8 7 6 9 5 359 350 347 336 316 294 273 276 293 329
117 120 113 122 115 108 101 94 86 80 74 73 70 66 64 59 52 49 45 43 43 38 35 30 24 20 17 15 10 6 5 5 3 356 348 341 322 308 286 246 258 285 287
118 108 113 125 116 108 102 99 94 90 83 77 71 70 64 59 55 51 47 44 39 35 31 26 22 18 14 9 6 6 6 8 2 359 345 331 314 297 280 221 229 281 303
110 114 128 121 115 111 106 102 97 92 88 82 77 71 70 60 54 50 45 39 36 31 26 20 14 11 6 358 355 358 1 6 3 6 346 333 318 302 249 159 351 349 319
114 118 122 118 114 111 107 104 99 96 91 86 81 76 69 64 53 48 44 39 35 30 27 22 16 14 9 359 352 358 3 360 6 2 354 342 341 0 53 48 54 31 4
130 114 112 120 118 114 110 105 99 92 89 87 83 78 71 65 55 53 49 45 41 36 32 27 25 25 19 9 357 2 3 358 8 4 357 350 334 32 44 39 29 29 19
128 110 109 119 119 114 108 102 96 94 92 91 81 77 69 57 56 54 48 41 32 27 23 16 17 21 17 15 18 12 8 13 10 1 1 355 353 21 27 25 14 11 7
105 103 97 97 115 115 109 105 99 91 91 80 76 75 65 50 49 51 38 31 32 28 25 22 22 20 17 16 18 21 18 21 27 8 357 353 339 355 359 360 354 353 355
109 114 116 107 105 102 94 109 97 85 72 62 71 75 61 43 46 47 40 38 33 26 23 22 19 19 20 17 17 17 21 24 12 356 349 328 341 336 333 336 345 338 3
111 127 128 126 121 118 112 94 71 58 59 52 52 72 59 47 47 47 41 37 34 28 26 25 23 22 20 13 13 14 16 5 18 12 346 335 344 350 6 22 42 27 353
156 162 154 144 140 130 124 101 84 75 71 56 61 70 70 59 49 56 38 36 32 30 26 26 26 24 21 7 358 11 3 353 5 360 349 2 353 338 308 346 348 337 336
162 160 175 164 149 139 124 118 100 102 92 70 69 76 68 68 46 42 38 21 17 23 16 19 13 19 14 6 1 360 356 356 354 352 348 8 3 350 349 337 352 336 329
163 172 169 165 153 148 125 128 137 130 127 110 90 81 74 53 43 40 42 23 29 13 15 14 9 1 11 3 360 354 357 353 345 352 345 11 15 5 351 344 9 11 352
164 170 175 158 154 148 136 134 139 152 142 150 100 84 92 81 66 47 33 27 20 11 21 6 4 2 0 352 349 353 344 331 327 310 337 355 27 21 17 5 346 354 350
159 174 167 168 156 147 143 150 154 153 156 146 116 115 100 105 92 68 41 24 23 16 359 0 355 353 345 342 336 334 321 311 307 252 255 346 27 34 27 21 14 3 354
178 164 172 166 158 153 156 160 165 174 147 158 163 152 131 109 88 79 48 22 4 355 359 360 355 352 350 343 334 324 321 312 284 256 210 187 359 6 26 26 18 7 359
151 176 166 162 156 155 164 167 170 159 147 165 170 184 188 163 124 76 45 0 328 2 11 359 358 342 346 350 325 322 322 316 305 279 209 198 162 357 353 350 0 2 354
176 162 171 166 165 165 166 157 155 151 150 182 178 211 231 216 167 131 92 330 7 15 18 360 338 15 339 338 324 326 335 337 303 357 227 234 244 296 327 331 350 352 342
170 165 157 164 162 157 135 109 79 77 133 204 224 224 227 220 203 166 50 2 25 16 10 9 1 333 314 324 317 332 346 356 36 18 354 341 319 305 323 339 349 337 339
154 160 170 163 176 146 130 124 99 211 210 245 232 233 224 216 198 175 187 43 39 42 3 3 345 12 340 334 349 346 340 15 27 27 4 351 0 4 4 9 351 331 322
170 179 169 182 170 169 123 131 143 160 181 208 238 260 241 213 205 186 182 117 63 40 20 31 50 346 321 27 76 174 2 334 359 16 16 50 24 16 23 6 336 330 333
177 181 183 183 168 154 145 116 88 74 56 18 293 271 308 225 204 177 158 138 105 101 33 11 75 82 18 336 46 131 22 290 324 316 17 60 19 360 329 332 326 324 317
196 173 168 159 160 165 160 159 175 163 191 224 181 348 352 32 72 153 152 129 101 98 67 11 94 115 120 4 333 61 132 168 222 322 325 300 332 331 318 319 308 314 340
154 171 160 158 164 161 171 164 161 196 212 71 260 343 12 16 28 65 111 116 115 100 88 97 102 147 166 155 176 342 359 340 323 200 281 309 314 285 289 279 294 298 327
119 136 157 161 170 156 150 177 186 205 216 227 279 276 357 64 57 66 83 89 83 79 72 70 87 95 108 137 179 196 202 209 221 243 276 295 287 296 262 280 271 299 329